Gustavus, AK

11:42 AM AKST on January 18, 2017 (GMT -0900)
Gustavus

Weather History for PAGS - December, 2013

Change the Weather History Date:

Thursday, December 5, 2013

  Actual Average Record
Temperature  
Mean Temperature 11 °F -  
Max Temperature 19 °F 34 °F 47 °F (1989)
Min Temperature 3 °F 26 °F 0 °F (1977)
Degree Days  
Heating Degree Days 54    
Moisture  
Dew Point 7 °F    
Average Humidity 89    
Maximum Humidity 100    
Minimum Humidity 73    
Precipitation  
Precipitation 0.00 in - - ()
Sea Level Pressure  
Sea Level Pressure 30.54 in    
Wind  
Wind Speed 2 mph (NNW)    
Max Wind Speed 8 mph    
Max Gust Speed -    
Visibility 10 miles    
Events      
Averages and records for this station are not official NWS values.
T = Trace of Precipitation, MM = Missing Value Source: NWS Daily Summary

Daily Weather History Graph

Daily Weather History Graph

Search for Another Location

Airport or City:

Trip Planner

Search our weather history database for the weather conditions in past years. The results will help you decide how hot, cold, wet, or windy it might be!

Date:

Astronomy

Dec. 05, 2013 Rise Set
Actual Time 8:33 AM AKST 3:13 PM AKST
Civil Twilight 7:42 AM AKST 4:04 PM AKST
Nautical Twilight 6:49 AM AKST 4:57 PM AKST
Astronomical Twilight 6:01 AM AKST 5:45 PM AKST
Moon 10:36 AM AKST (12/5) 7:10 PM AKST (12/5)
Length of Visible Light 8h 22m
Length of Day
6h 40m
Waxing Crescent, 12% of the Moon is Illuminated
Dec 5
Waxing Crescent
Dec 9
First Quarter
Dec 17
Full
Dec 25
Last Quarter
Jan 1
New

Hourly Weather History & Observations

Time (AKST) Temp. Windchill Dew Point Humidity Pressure Visibility Wind Dir Wind Speed Gust Speed Precip Events Conditions
12:16 AM 12.2 °F - 12.2 °F 100% 30.43 in 10.0 mi Calm Calm - N/A   Clear
12:36 AM 10.4 °F - 8.6 °F 92% 30.43 in 10.0 mi Calm Calm - N/A   Clear
12:56 AM 10.4 °F 4.0 °F 8.6 °F 92% 30.43 in 10.0 mi NNW 3.5 mph - N/A   Clear
1:16 AM 10.4 °F 4.0 °F 8.6 °F 92% 30.43 in 10.0 mi NNW 3.5 mph - N/A   Clear
1:36 AM 8.6 °F 2.0 °F 5.0 °F 85% 30.44 in 10.0 mi North 3.5 mph - N/A   Clear
1:56 AM 8.6 °F - 5.0 °F 85% 30.44 in 10.0 mi Calm Calm - N/A   Clear
2:16 AM 8.6 °F 2.0 °F 3.2 °F 79% 30.44 in 10.0 mi NNW 3.5 mph - N/A   Clear
2:36 AM 6.8 °F -0.1 °F 3.2 °F 85% 30.44 in 10.0 mi North 3.5 mph - N/A   Clear
2:56 AM 6.8 °F - 3.2 °F 85% 30.44 in 10.0 mi Calm Calm - N/A   Clear
3:16 AM 6.8 °F -0.1 °F 5.0 °F 92% 30.44 in 10.0 mi NNW 3.5 mph - N/A   Clear
3:36 AM 6.8 °F -0.1 °F 5.0 °F 92% 30.44 in 10.0 mi NNW 3.5 mph - N/A   Partly Cloudy
3:56 AM 6.8 °F - 3.2 °F 85% 30.45 in 10.0 mi Calm Calm - N/A   Partly Cloudy
4:16 AM 5.0 °F -2.1 °F 1.4 °F 85% 30.46 in 10.0 mi North 3.5 mph - N/A   Partly Cloudy
4:36 AM 6.8 °F -0.1 °F 5.0 °F 92% 30.46 in 10.0 mi North 3.5 mph - N/A   Scattered Clouds
4:56 AM 6.8 °F - 5.0 °F 92% 30.46 in 10.0 mi Calm Calm - N/A   Scattered Clouds
5:16 AM 5.0 °F - -0.4 °F 78% 30.46 in 10.0 mi Calm Calm - N/A   Partly Cloudy
5:36 AM 5.0 °F -2.1 °F 1.4 °F 85% 30.47 in 10.0 mi NNW 3.5 mph - N/A   Clear
5:56 AM 5.0 °F -4.1 °F 3.2 °F 92% 30.47 in 10.0 mi North 4.6 mph - N/A   Clear
6:16 AM 5.0 °F -5.6 °F 1.4 °F 85% 30.47 in 10.0 mi NNW 5.8 mph - N/A   Clear
6:36 AM 6.8 °F -3.5 °F 3.2 °F 85% 30.48 in 10.0 mi NNW 5.8 mph - N/A   Clear
6:56 AM 6.8 °F -2.0 °F 1.4 °F 79% 30.48 in 10.0 mi NNW 4.6 mph - N/A   Clear
7:16 AM 5.0 °F -4.1 °F -0.4 °F 78% 30.48 in 10.0 mi North 4.6 mph - N/A   Clear
7:36 AM 6.8 °F - 1.4 °F 79% 30.49 in 10.0 mi Calm Calm - N/A   Clear
7:56 AM 5.0 °F -4.1 °F 3.2 °F 92% 30.49 in 10.0 mi NNW 4.6 mph - N/A   Clear
8:16 AM 5.0 °F - 1.4 °F 85% 30.50 in 10.0 mi Calm Calm - N/A   Clear
8:36 AM 6.8 °F -2.0 °F 1.4 °F 79% 30.51 in 10.0 mi NNW 4.6 mph - N/A   Clear
8:56 AM 3.2 °F -6.2 °F 1.4 °F 92% 30.51 in 10.0 mi NNW 4.6 mph - N/A   Clear
9:16 AM 6.8 °F -2.0 °F 1.4 °F 79% 30.52 in 10.0 mi NNW 4.6 mph - N/A   Clear
9:36 AM 5.0 °F -4.1 °F 1.4 °F 85% 30.53 in 10.0 mi North 4.6 mph - N/A   Clear
9:56 AM 6.8 °F -2.0 °F 3.2 °F 85% 30.53 in 10.0 mi North 4.6 mph - N/A   Clear
10:16 AM 8.6 °F - 6.8 °F 92% 30.54 in 2.0 mi Calm Calm - N/A   Scattered Clouds
10:36 AM 10.4 °F 4.0 °F 10.4 °F 100% 30.54 in 10.0 mi North 3.5 mph - N/A   Clear
10:56 AM 15.8 °F - 12.2 °F 86% 30.55 in 10.0 mi Calm Calm - N/A   Clear
11:16 AM 15.8 °F - 12.2 °F 86% 30.55 in 10.0 mi Calm Calm - N/A   Clear
11:36 AM 15.8 °F - 12.2 °F 86% 30.55 in 10.0 mi Calm Calm - N/A   Clear
11:56 AM 15.8 °F - 12.2 °F 86% 30.55 in 10.0 mi Calm Calm - N/A   Clear
12:16 PM 15.8 °F 8.6 °F 14.0 °F 93% 30.55 in 10.0 mi NNW 4.6 mph - N/A   Clear
12:36 PM 17.6 °F 9.3 °F 15.8 °F 93% 30.55 in 10.0 mi NNW 5.8 mph - N/A   Clear
12:56 PM 17.6 °F - 15.8 °F 93% 30.56 in 10.0 mi Calm Calm - N/A   Clear
1:16 PM 19.4 °F - 15.8 °F 86% 30.56 in 10.0 mi Calm Calm - N/A   Clear
1:36 PM 19.4 °F - 19.4 °F 100% 30.56 in 10.0 mi Calm Calm - N/A   Clear
1:56 PM 19.4 °F - 15.8 °F 86% 30.57 in 10.0 mi Calm Calm - N/A   Clear
2:16 PM 19.4 °F - 15.8 °F 86% 30.57 in 10.0 mi Calm Calm - N/A   Clear
2:36 PM 19.4 °F 14.3 °F 17.6 °F 93% 30.58 in 10.0 mi NNW 3.5 mph - N/A   Clear
2:56 PM 15.8 °F - 14.0 °F 93% 30.58 in 10.0 mi Calm Calm - N/A   Clear
3:16 PM 15.8 °F - 15.8 °F 100% 30.58 in 10.0 mi Calm Calm - N/A   Clear
3:36 PM 15.8 °F 6.1 °F 14.0 °F 93% 30.58 in 10.0 mi North 6.9 mph - N/A   Clear
3:56 PM 15.8 °F - 15.8 °F 100% 30.58 in 10.0 mi Calm Calm - N/A   Clear
4:16 PM 15.8 °F - 8.6 °F 73% 30.58 in 10.0 mi Calm Calm - N/A   Clear
4:36 PM 10.4 °F - 6.8 °F 85% 30.58 in 10.0 mi Calm Calm - N/A   Clear
4:56 PM 12.2 °F 6.1 °F 8.6 °F 85% 30.59 in 10.0 mi NNW 3.5 mph - N/A   Clear
5:16 PM 12.2 °F 0.7 °F 8.6 °F 85% 30.59 in 10.0 mi North 8.1 mph - N/A   Clear
5:36 PM 12.2 °F - 8.6 °F 85% 30.59 in 10.0 mi Calm Calm - N/A   Clear
5:56 PM 12.2 °F 1.7 °F 10.4 °F 92% 30.60 in 10.0 mi NNW 6.9 mph - N/A   Clear
6:16 PM 12.2 °F 6.1 °F 8.6 °F 85% 30.60 in 10.0 mi NNW 3.5 mph - N/A   Clear
6:36 PM 12.2 °F - 10.4 °F 92% 30.59 in 10.0 mi Calm Calm - N/A   Clear
6:56 PM 8.6 °F - 8.6 °F 100% 30.60 in 10.0 mi Calm Calm - N/A   Clear
7:16 PM 8.6 °F - 8.6 °F 100% 30.60 in 10.0 mi Calm Calm - N/A   Clear
7:36 PM 10.4 °F 4.0 °F 10.4 °F 100% 30.60 in 10.0 mi North 3.5 mph - N/A   Clear
7:56 PM 8.6 °F - 8.6 °F 100% 30.60 in 10.0 mi Calm Calm - N/A   Clear
8:16 PM 6.8 °F - 5.0 °F 92% 30.60 in 10.0 mi Calm Calm - N/A   Clear
8:36 PM 6.8 °F - 1.4 °F 79% 30.60 in 10.0 mi Calm Calm - N/A   Clear
8:56 PM 6.8 °F -0.1 °F 3.2 °F 85% 30.60 in 10.0 mi North 3.5 mph - N/A   Clear
9:16 PM 6.8 °F -0.1 °F 1.4 °F 79% 30.60 in 10.0 mi NNW 3.5 mph - N/A   Clear
9:36 PM 6.8 °F -3.5 °F 1.4 °F 79% 30.60 in 10.0 mi NNW 5.8 mph - N/A   Clear
9:56 PM 5.0 °F -4.1 °F 5.0 °F 100% 30.61 in 10.0 mi North 4.6 mph - N/A   Clear
10:16 PM 5.0 °F -5.6 °F 1.4 °F 85% 30.61 in 10.0 mi NNW 5.8 mph - N/A   Clear
10:36 PM 8.6 °F 2.0 °F 6.8 °F 92% 30.61 in 10.0 mi North 3.5 mph - N/A   Clear
10:56 PM 6.8 °F -2.0 °F 6.8 °F 100% 30.61 in 10.0 mi North 4.6 mph - N/A   Clear
11:16 PM 5.0 °F -2.1 °F 3.2 °F 92% 30.62 in 10.0 mi North 3.5 mph - N/A   Clear
11:36 PM 3.2 °F -4.2 °F 1.4 °F 92% 30.62 in 10.0 mi NNW 3.5 mph - N/A   Clear
11:56 PM 5.0 °F - 1.4 °F 85% 30.62 in 10.0 mi Calm Calm - N/A   Clear